Time,TemperatureF,DewpointF,PressureIn,WindDirection,WindDirectionDegrees,WindSpeedMPH,WindSpeedGustMPH,Humidity,HourlyPrecipIn,Conditions,Clouds,dailyrainin,SoftwareType,DateUTC
2013-02-28 00:02:00,41.0,5.0,30.36,SW,216,3.0,3.0,22,0.00,,,0.00,Wunderground v.1.15,2013-02-28 08:02:00,
2013-02-28 00:08:00,40.9,5.9,30.36,SW,215,3.0,4.0,23,0.00,,,0.00,Wunderground v.1.15,2013-02-28 08:08:00,
2013-02-28 00:14:00,41.0,5.0,30.36,SW,216,2.0,3.0,22,0.00,,,0.00,Wunderground v.1.15,2013-02-28 08:14:00,
2013-02-28 00:20:00,41.0,6.0,30.36,SW,216,1.0,1.0,23,0.00,,,0.00,Wunderground v.1.15,2013-02-28 08:20:00,
2013-02-28 00:26:00,41.0,6.0,30.36,SW,215,0.0,2.0,23,0.00,,,0.00,Wunderground v.1.15,2013-02-28 08:26:00,
2013-02-28 00:32:00,41.1,6.0,30.36,SW,216,0.0,1.0,23,0.00,,,0.00,Wunderground v.1.15,2013-02-28 08:32:00,
2013-02-28 00:38:00,41.2,6.1,30.36,SW,216,0.0,1.0,23,0.00,,,0.00,Wunderground v.1.15,2013-02-28 08:38:00,
2013-02-28 00:44:00,41.2,6.1,30.36,SW,216,0.0,1.0,23,0.00,,,0.00,Wunderground v.1.15,2013-02-28 08:44:00,
2013-02-28 00:50:00,41.1,6.0,30.36,SW,216,0.0,1.0,23,0.00,,,0.00,Wunderground v.1.15,2013-02-28 08:50:00,
2013-02-28 00:56:00,41.2,6.1,30.37,SW,216,1.0,3.0,23,0.00,,,0.00,Wunderground v.1.15,2013-02-28 08:56:00,
2013-02-28 01:02:00,41.1,5.1,30.37,SW,216,1.0,1.0,22,0.00,,,0.00,Wunderground v.1.15,2013-02-28 09:02:00,
2013-02-28 01:08:00,41.0,6.0,30.37,SW,215,1.0,2.0,23,0.00,,,0.00,Wunderground v.1.15,2013-02-28 09:08:00,
2013-02-28 01:14:00,40.6,4.7,30.37,SW,216,1.0,2.0,22,0.00,,,0.00,Wunderground v.1.15,2013-02-28 09:14:00,
2013-02-28 01:20:00,40.4,5.5,30.37,SW,217,2.0,5.0,23,0.00,,,0.00,Wunderground v.1.15,2013-02-28 09:20:00,
2013-02-28 01:26:00,40.4,5.5,30.37,SW,217,3.0,5.0,23,0.00,,,0.00,Wunderground v.1.15,2013-02-28 09:26:00,
2013-02-28 01:32:00,40.4,5.5,30.37,SW,217,2.0,2.0,23,0.00,,,0.00,Wunderground v.1.15,2013-02-28 09:32:00,
2013-02-28 01:38:00,40.4,5.5,30.37,SW,217,1.0,2.0,23,0.00,,,0.00,Wunderground v.1.15,2013-02-28 09:38:00,
2013-02-28 01:44:00,40.5,5.5,30.36,SW,217,1.0,1.0,23,0.00,,,0.00,Wunderground v.1.15,2013-02-28 09:44:00,
2013-02-28 01:50:00,40.6,6.6,30.36,SW,217,0.0,1.0,24,0.00,,,0.00,Wunderground v.1.15,2013-02-28 09:50:00,
2013-02-28 01:56:00,40.6,5.6,30.37,SW,217,0.0,1.0,23,0.00,,,0.00,Wunderground v.1.15,2013-02-28 09:56:00,
2013-02-28 02:02:00,40.5,5.5,30.37,SW,217,0.0,1.0,23,0.00,,,0.00,Wunderground v.1.15,2013-02-28 10:02:00,
2013-02-28 02:08:00,40.3,6.3,30.37,SW,217,0.0,1.0,24,0.00,,,0.00,Wunderground v.1.15,2013-02-28 10:08:00,
2013-02-28 02:14:00,40.1,6.1,30.37,SW,217,0.0,0.0,24,0.00,,,0.00,Wunderground v.1.15,2013-02-28 10:14:00,
2013-02-28 02:20:00,39.8,5.9,30.37,SW,217,0.0,0.0,24,0.00,,,0.00,Wunderground v.1.15,2013-02-28 10:20:00,
2013-02-28 02:26:00,39.4,5.5,30.37,SW,217,0.0,1.0,24,0.00,,,0.00,Wunderground v.1.15,2013-02-28 10:26:00,
2013-02-28 02:32:00,39.1,5.3,30.37,SW,217,1.0,5.0,24,0.00,,,0.00,Wunderground v.1.15,2013-02-28 10:32:00,
2013-02-28 02:38:00,38.8,5.0,30.37,SW,217,2.0,5.0,24,0.00,,,0.00,Wunderground v.1.15,2013-02-28 10:38:00,
2013-02-28 02:44:00,38.4,4.7,30.37,SW,217,1.0,2.0,24,0.00,,,0.00,Wunderground v.1.15,2013-02-28 10:44:00,
2013-02-28 02:50:00,38.2,5.4,30.37,SW,217,0.0,0.0,25,0.00,,,0.00,Wunderground v.1.15,2013-02-28 10:50:00,
2013-02-28 02:56:00,37.8,4.2,30.37,SW,217,0.0,0.0,24,0.00,,,0.00,Wunderground v.1.15,2013-02-28 10:56:00,
2013-02-28 03:02:00,37.6,4.9,30.37,SW,217,0.0,0.0,25,0.00,,,0.00,Wunderground v.1.15,2013-02-28 11:02:00,
2013-02-28 03:08:00,37.5,4.8,30.36,SW,217,0.0,0.0,25,0.00,,,0.00,Wunderground v.1.15,2013-02-28 11:08:00,
2013-02-28 03:14:00,37.6,5.7,30.36,SW,217,0.0,0.0,26,0.00,,,0.00,Wunderground v.1.15,2013-02-28 11:14:00,
2013-02-28 03:20:00,37.7,6.7,30.36,SW,217,0.0,0.0,27,0.00,,,0.00,Wunderground v.1.15,2013-02-28 11:20:00,
2013-02-28 03:26:00,37.8,5.9,30.36,SW,217,0.0,0.0,26,0.00,,,0.00,Wunderground v.1.15,2013-02-28 11:26:00,
2013-02-28 03:32:00,37.9,7.6,30.36,SW,217,0.0,0.0,28,0.00,,,0.00,Wunderground v.1.15,2013-02-28 11:32:00,
2013-02-28 03:38:00,37.9,6.8,30.36,SW,217,0.0,0.0,27,0.00,,,0.00,Wunderground v.1.15,2013-02-28 11:38:00,
2013-02-28 03:44:00,38.1,7.8,30.36,SW,217,0.0,0.0,28,0.00,,,0.00,Wunderground v.1.15,2013-02-28 11:44:00,
2013-02-28 03:50:00,38.4,7.3,30.36,SW,217,0.0,0.0,27,0.00,,,0.00,Wunderground v.1.15,2013-02-28 11:50:00,
2013-02-28 03:56:00,38.7,7.5,30.36,SW,217,0.0,0.0,27,0.00,,,0.00,Wunderground v.1.15,2013-02-28 11:56:00,
2013-02-28 04:02:00,38.9,6.9,30.37,SW,217,0.0,0.0,26,0.00,,,0.00,Wunderground v.1.15,2013-02-28 12:02:00,
2013-02-28 04:08:00,38.9,6.9,30.37,SW,217,0.0,0.0,26,0.00,,,0.00,Wunderground v.1.15,2013-02-28 12:08:00,
2013-02-28 04:14:00,38.9,6.9,30.37,SW,217,0.0,0.0,26,0.00,,,0.00,Wunderground v.1.15,2013-02-28 12:14:00,
2013-02-28 04:20:00,39.0,7.0,30.37,SW,217,0.0,0.0,26,0.00,,,0.00,Wunderground v.1.15,2013-02-28 12:20:00,
2013-02-28 04:26:00,38.9,6.0,30.37,SW,217,0.0,0.0,25,0.00,,,0.00,Wunderground v.1.15,2013-02-28 12:26:00,
2013-02-28 04:32:00,38.7,6.7,30.38,SW,217,0.0,0.0,26,0.00,,,0.00,Wunderground v.1.15,2013-02-28 12:32:00,
2013-02-28 04:38:00,38.5,6.5,30.38,SW,217,0.0,0.0,26,0.00,,,0.00,Wunderground v.1.15,2013-02-28 12:38:00,
2013-02-28 04:44:00,38.2,6.3,30.38,SW,217,0.0,0.0,26,0.00,,,0.00,Wunderground v.1.15,2013-02-28 12:44:00,
2013-02-28 04:50:00,38.0,6.1,30.38,SW,217,0.0,0.0,26,0.00,,,0.00,Wunderground v.1.15,2013-02-28 12:50:00,
2013-02-28 04:56:00,37.8,6.8,30.38,SW,217,0.0,0.0,27,0.00,,,0.00,Wunderground v.1.15,2013-02-28 12:56:00,
2013-02-28 05:02:00,37.7,6.7,30.38,SW,217,0.0,0.0,27,0.00,,,0.00,Wunderground v.1.15,2013-02-28 13:02:00,
2013-02-28 05:08:00,37.7,6.7,30.38,SW,217,0.0,0.0,27,0.00,,,0.00,Wunderground v.1.15,2013-02-28 13:08:00,
2013-02-28 05:14:00,37.6,6.6,30.38,SW,217,0.0,0.0,27,0.00,,,0.00,Wunderground v.1.15,2013-02-28 13:14:00,
2013-02-28 05:20:00,37.4,6.4,30.39,SW,217,0.0,0.0,27,0.00,,,0.00,Wunderground v.1.15,2013-02-28 13:20:00,
2013-02-28 05:26:00,37.4,6.4,30.39,SW,217,0.0,0.0,27,0.00,,,0.00,Wunderground v.1.15,2013-02-28 13:26:00,
2013-02-28 05:32:00,37.4,6.4,30.39,SW,217,1.0,3.0,27,0.00,,,0.00,Wunderground v.1.15,2013-02-28 13:32:00,
2013-02-28 05:38:00,37.3,6.3,30.39,SW,217,2.0,3.0,27,0.00,,,0.00,Wunderground v.1.15,2013-02-28 13:38:00,
2013-02-28 05:44:00,37.0,6.1,30.38,SW,217,3.0,3.0,27,0.00,,,0.00,Wunderground v.1.15,2013-02-28 13:44:00,
2013-02-28 05:51:00,36.9,6.8,30.38,SW,217,3.0,3.0,28,0.00,,,0.00,Wunderground v.1.15,2013-02-28 13:51:00,
2013-02-28 05:56:00,36.8,6.7,30.38,SW,217,4.0,5.0,28,0.00,,,0.00,Wunderground v.1.15,2013-02-28 13:56:00,
2013-02-28 06:02:00,36.9,6.8,30.38,SW,217,4.0,5.0,28,0.00,,,0.00,Wunderground v.1.15,2013-02-28 14:02:00,
2013-02-28 06:08:00,36.9,6.8,30.38,SW,217,4.0,5.0,28,0.00,,,0.00,Wunderground v.1.15,2013-02-28 14:08:00,
2013-02-28 06:14:00,36.9,6.8,30.38,SW,217,3.0,4.0,28,0.00,,,0.00,Wunderground v.1.15,2013-02-28 14:14:00,
2013-02-28 06:20:00,36.9,6.8,30.39,SW,218,2.0,2.0,28,0.00,,,0.00,Wunderground v.1.15,2013-02-28 14:20:00,
2013-02-28 06:26:00,36.8,6.7,30.39,SW,218,1.0,2.0,28,0.00,,,0.00,Wunderground v.1.15,2013-02-28 14:26:00,
2013-02-28 06:32:00,36.6,6.5,30.39,SW,218,0.0,0.0,28,0.00,,,0.00,Wunderground v.1.15,2013-02-28 14:32:00,
2013-02-28 06:38:00,36.4,6.3,30.39,SW,218,0.0,0.0,28,0.00,,,0.00,Wunderground v.1.15,2013-02-28 14:38:00,
2013-02-28 06:44:00,35.9,5.9,30.39,SW,218,0.0,0.0,28,0.00,,,0.00,Wunderground v.1.15,2013-02-28 14:44:00,
2013-02-28 06:50:00,35.7,6.5,30.39,SW,218,0.0,0.0,29,0.00,,,0.00,Wunderground v.1.15,2013-02-28 14:50:00,
2013-02-28 06:56:00,35.5,7.1,30.39,SW,218,0.0,0.0,30,0.00,,,0.00,Wunderground v.1.15,2013-02-28 14:56:00,
2013-02-28 07:02:00,35.4,6.2,30.39,SW,218,0.0,0.0,29,0.00,,,0.00,Wunderground v.1.15,2013-02-28 15:02:00,
2013-02-28 07:08:00,35.5,6.3,30.40,SW,218,0.0,0.0,29,0.00,,,0.00,Wunderground v.1.15,2013-02-28 15:08:00,
2013-02-28 07:14:00,35.8,6.6,30.40,SW,218,0.0,0.0,29,0.00,,,0.00,Wunderground v.1.15,2013-02-28 15:14:00,
2013-02-28 07:20:00,36.4,7.1,30.40,SW,218,0.0,0.0,29,0.00,,,0.00,Wunderground v.1.15,2013-02-28 15:20:00,
2013-02-28 07:26:00,37.1,6.9,30.41,SW,218,0.0,0.0,28,0.00,,,0.00,Wunderground v.1.15,2013-02-28 15:26:00,
2013-02-28 07:32:00,37.7,7.5,30.41,SW,218,0.0,0.0,28,0.00,,,0.00,Wunderground v.1.15,2013-02-28 15:32:00,
2013-02-28 07:38:00,38.4,8.1,30.42,SW,218,0.0,0.0,28,0.00,,,0.00,Wunderground v.1.15,2013-02-28 15:38:00,
2013-02-28 07:44:00,39.0,8.6,30.42,SW,218,0.0,0.0,28,0.00,,,0.00,Wunderground v.1.15,2013-02-28 15:44:00,
2013-02-28 07:50:00,39.6,8.3,30.43,SW,218,0.0,0.0,27,0.00,,,0.00,Wunderground v.1.15,2013-02-28 15:50:00,
2013-02-28 07:56:00,40.6,8.3,30.42,SW,218,0.0,1.0,26,0.00,,,0.00,Wunderground v.1.15,2013-02-28 15:56:00,
2013-02-28 08:02:00,42.1,8.7,30.43,SW,218,0.0,0.0,25,0.00,,,0.00,Wunderground v.1.15,2013-02-28 16:02:00,
2013-02-28 08:08:00,43.9,10.3,30.43,SW,218,0.0,0.0,25,0.00,,,0.00,Wunderground v.1.15,2013-02-28 16:08:00,
2013-02-28 08:14:00,45.5,10.7,30.43,SW,218,0.0,0.0,24,0.00,,,0.00,Wunderground v.1.15,2013-02-28 16:14:00,
2013-02-28 08:20:00,46.8,10.9,30.43,SW,218,0.0,0.0,23,0.00,,,0.00,Wunderground v.1.15,2013-02-28 16:20:00,
2013-02-28 08:26:00,48.2,12.1,30.43,SW,218,1.0,1.0,23,0.00,,,0.00,Wunderground v.1.15,2013-02-28 16:26:00,
2013-02-28 08:32:00,49.2,11.9,30.43,SW,219,1.0,3.0,22,0.00,,,0.00,Wunderground v.1.15,2013-02-28 16:32:00,
2013-02-28 08:38:00,49.9,12.5,30.43,SW,218,1.0,3.0,22,0.00,,,0.00,Wunderground v.1.15,2013-02-28 16:38:00,
2013-02-28 08:44:00,50.6,12.0,30.43,SW,218,0.0,0.0,21,0.00,,,0.00,Wunderground v.1.15,2013-02-28 16:44:00,
2013-02-28 08:50:00,51.3,12.6,30.43,SW,219,0.0,0.0,21,0.00,,,0.00,Wunderground v.1.15,2013-02-28 16:50:00,
2013-02-28 08:56:00,51.8,13.0,30.43,SW,219,0.0,0.0,21,0.00,,,0.00,Wunderground v.1.15,2013-02-28 16:56:00,
2013-02-28 09:02:00,52.6,12.6,30.43,SW,219,0.0,1.0,20,0.00,,,0.00,Wunderground v.1.15,2013-02-28 17:02:00,
2013-02-28 09:08:00,53.3,13.2,30.43,SW,219,0.0,1.0,20,0.00,,,0.00,Wunderground v.1.15,2013-02-28 17:08:00,
2013-02-28 09:14:00,53.7,13.5,30.43,SW,219,0.0,0.0,20,0.00,,,0.00,Wunderground v.1.15,2013-02-28 17:14:00,
2013-02-28 09:20:00,54.7,13.2,30.43,SW,218,1.0,1.0,19,0.00,,,0.00,Wunderground v.1.15,2013-02-28 17:20:00,
2013-02-28 09:26:00,55.3,13.7,30.43,SW,218,1.0,1.0,19,0.00,,,0.00,Wunderground v.1.15,2013-02-28 17:26:00,
2013-02-28 09:32:00,56.0,14.3,30.43,SW,219,1.0,2.0,19,0.00,,,0.00,Wunderground v.1.15,2013-02-28 17:32:00,
2013-02-28 09:38:00,56.8,13.7,30.44,SW,220,1.0,2.0,18,0.00,,,0.00,Wunderground v.1.15,2013-02-28 17:38:00,
2013-02-28 09:44:00,57.3,14.1,30.44,SW,221,2.0,3.0,18,0.00,,,0.00,Wunderground v.1.15,2013-02-28 17:44:00,
2013-02-28 09:50:00,57.2,14.0,30.43,SW,221,1.0,1.0,18,0.00,,,0.00,Wunderground v.1.15,2013-02-28 17:50:00,
2013-02-28 09:56:00,57.6,13.0,30.42,SW,221,0.0,2.0,17,0.00,,,0.00,Wunderground v.1.15,2013-02-28 17:56:00,
2013-02-28 10:02:00,58.0,13.4,30.43,SW,221,0.0,1.0,17,0.00,,,0.00,Wunderground v.1.15,2013-02-28 18:02:00,
2013-02-28 10:08:00,59.0,14.2,30.42,SW,221,0.0,2.0,17,0.00,,,0.00,Wunderground v.1.15,2013-02-28 18:08:00,
2013-02-28 10:14:00,59.9,13.5,30.43,SW,221,1.0,3.0,16,0.00,,,0.00,Wunderground v.1.15,2013-02-28 18:14:00,
2013-02-28 10:20:00,60.4,15.3,30.42,SW,233,2.0,2.0,17,0.00,,,0.00,Wunderground v.1.15,2013-02-28 18:20:00,
2013-02-28 10:26:00,60.9,14.3,30.42,West,280,1.0,3.0,16,0.00,,,0.00,Wunderground v.1.15,2013-02-28 18:26:00,
2013-02-28 10:32:00,61.2,14.6,30.43,West,280,1.0,1.0,16,0.00,,,0.00,Wunderground v.1.15,2013-02-28 18:32:00,
2013-02-28 10:38:00,61.7,13.5,30.42,West,281,1.0,3.0,15,0.00,,,0.00,Wunderground v.1.15,2013-02-28 18:38:00,
2013-02-28 10:44:00,61.4,13.3,30.42,West,280,1.0,3.0,15,0.00,,,0.00,Wunderground v.1.15,2013-02-28 18:44:00,
2013-02-28 10:50:00,61.4,13.3,30.42,West,281,1.0,1.0,15,0.00,,,0.00,Wunderground v.1.15,2013-02-28 18:50:00,
2013-02-28 10:56:00,62.1,13.8,30.42,West,281,0.0,1.0,15,0.00,,,0.00,Wunderground v.1.15,2013-02-28 18:56:00,
2013-02-28 11:02:00,63.3,14.8,30.42,West,281,1.0,1.0,15,0.00,,,0.00,Wunderground v.1.15,2013-02-28 19:02:00,
2013-02-28 11:08:00,62.7,14.3,30.42,West,280,0.0,1.0,15,0.00,,,0.00,Wunderground v.1.15,2013-02-28 19:08:00,
2013-02-28 11:14:00,63.8,15.2,30.42,West,280,0.0,1.0,15,0.00,,,0.00,Wunderground v.1.15,2013-02-28 19:14:00,
2013-02-28 11:20:00,64.0,13.8,30.42,West,281,1.0,1.0,14,0.00,,,0.00,Wunderground v.1.15,2013-02-28 19:20:00,
2013-02-28 11:26:00,64.2,15.5,30.42,WNW,284,1.0,3.0,15,0.00,,,0.00,Wunderground v.1.15,2013-02-28 19:26:00,
2013-02-28 11:32:00,64.8,16.0,30.42,NW,325,2.0,2.0,15,0.00,,,0.00,Wunderground v.1.15,2013-02-28 19:32:00,
2013-02-28 11:38:00,65.3,14.8,30.42,NNE,29,3.0,4.0,14,0.00,,,0.00,Wunderground v.1.15,2013-02-28 19:38:00,
2013-02-28 11:44:00,65.0,16.2,30.41,NNE,28,2.0,4.0,15,0.00,,,0.00,Wunderground v.1.15,2013-02-28 19:44:00,
2013-02-28 11:50:00,65.5,15.0,30.41,North,11,2.0,2.0,14,0.00,,,0.00,Wunderground v.1.15,2013-02-28 19:50:00,
2013-02-28 11:56:00,65.6,15.1,30.41,North,10,2.0,3.0,14,0.00,,,0.00,Wunderground v.1.15,2013-02-28 19:56:00,
2013-02-28 12:02:00,65.6,15.1,30.41,ENE,68,2.0,2.0,14,0.00,,,0.00,Wunderground v.1.15,2013-02-28 20:02:00,
2013-02-28 12:08:00,65.8,15.2,30.40,NE,42,2.0,4.0,14,0.00,,,0.00,Wunderground v.1.15,2013-02-28 20:08:00,
2013-02-28 12:14:00,66.3,15.6,30.40,North,5,3.0,6.0,14,0.00,,,0.00,Wunderground v.1.15,2013-02-28 20:14:00,
2013-02-28 12:20:00,66.4,15.7,30.40,ENE,64,2.0,2.0,14,0.00,,,0.00,Wunderground v.1.15,2013-02-28 20:20:00,
2013-02-28 12:26:00,66.8,16.0,30.39,NE,40,1.0,4.0,14,0.00,,,0.00,Wunderground v.1.15,2013-02-28 20:26:00,
2013-02-28 12:32:00,67.2,16.3,30.39,NNW,327,2.0,4.0,14,0.00,,,0.00,Wunderground v.1.15,2013-02-28 20:32:00,
2013-02-28 12:38:00,67.3,14.7,30.39,NNE,33,3.0,4.0,13,0.00,,,0.00,Wunderground v.1.15,2013-02-28 20:38:00,
2013-02-28 12:44:00,67.5,14.9,30.38,NNE,24,3.0,3.0,13,0.00,,,0.00,Wunderground v.1.15,2013-02-28 20:44:00,
2013-02-28 12:50:00,68.5,15.7,30.38,NNE,29,1.0,4.0,13,0.00,,,0.00,Wunderground v.1.15,2013-02-28 20:50:00,
2013-02-28 12:56:00,68.8,15.9,30.38,NNE,24,2.0,4.0,13,0.00,,,0.00,Wunderground v.1.15,2013-02-28 20:56:00,
2013-02-28 13:02:00,68.4,15.6,30.37,NE,38,2.0,4.0,13,0.00,,,0.00,Wunderground v.1.15,2013-02-28 21:02:00,
2013-02-28 13:08:00,68.5,13.8,30.37,NNE,32,2.0,4.0,12,0.00,,,0.00,Wunderground v.1.15,2013-02-28 21:08:00,
2013-02-28 13:14:00,69.0,16.0,30.36,NNW,337,3.0,3.0,13,0.00,,,0.00,Wunderground v.1.15,2013-02-28 21:14:00,
2013-02-28 13:20:00,69.9,14.9,30.36,East,98,1.0,4.0,12,0.00,,,0.00,Wunderground v.1.15,2013-02-28 21:20:00,
2013-02-28 13:26:00,69.6,14.7,30.36,East,96,2.0,5.0,12,0.00,,,0.00,Wunderground v.1.15,2013-02-28 21:26:00,
2013-02-28 13:32:00,69.2,14.4,30.36,ESE,115,2.0,2.0,12,0.00,,,0.00,Wunderground v.1.15,2013-02-28 21:32:00,
2013-02-28 13:38:00,69.2,16.2,30.36,NE,54,2.0,4.0,13,0.00,,,0.00,Wunderground v.1.15,2013-02-28 21:38:00,
2013-02-28 13:44:00,69.3,14.4,30.36,ENE,59,2.0,2.0,12,0.00,,,0.00,Wunderground v.1.15,2013-02-28 21:44:00,
2013-02-28 13:50:00,69.3,14.4,30.35,East,82,1.0,1.0,12,0.00,,,0.00,Wunderground v.1.15,2013-02-28 21:50:00,
2013-02-28 13:56:00,69.1,16.1,30.35,East,81,1.0,1.0,13,0.00,,,0.00,Wunderground v.1.15,2013-02-28 21:56:00,
2013-02-28 14:02:00,70.1,15.1,30.35,ESE,106,2.0,6.0,12,0.00,,,0.00,Wunderground v.1.15,2013-02-28 22:02:00,
2013-02-28 14:08:00,70.9,15.7,30.35,NNE,32,4.0,6.0,12,0.00,,,0.00,Wunderground v.1.15,2013-02-28 22:08:00,
2013-02-28 14:14:00,70.8,15.6,30.35,NNE,32,3.0,4.0,12,0.00,,,0.00,Wunderground v.1.15,2013-02-28 22:14:00,
2013-02-28 14:20:00,70.6,15.5,30.35,ENE,63,2.0,3.0,12,0.00,,,0.00,Wunderground v.1.15,2013-02-28 22:20:00,
2013-02-28 14:26:00,70.2,15.1,30.35,NNE,24,3.0,3.0,12,0.00,,,0.00,Wunderground v.1.15,2013-02-28 22:26:00,
2013-02-28 14:32:00,70.9,15.7,30.35,North,9,2.0,3.0,12,0.00,,,0.00,Wunderground v.1.15,2013-02-28 22:32:00,
2013-02-28 14:38:00,71.1,15.9,30.35,North,360,3.0,4.0,12,0.00,,,0.00,Wunderground v.1.15,2013-02-28 22:38:00,
2013-02-28 14:44:00,71.5,16.2,30.35,NNW,345,3.0,3.0,12,0.00,,,0.00,Wunderground v.1.15,2013-02-28 22:44:00,
2013-02-28 14:50:00,72.1,16.6,30.34,North,351,2.0,3.0,12,0.00,,,0.00,Wunderground v.1.15,2013-02-28 22:50:00,
2013-02-28 14:56:00,72.5,14.9,30.34,NNW,348,3.0,3.0,11,0.00,,,0.00,Wunderground v.1.15,2013-02-28 22:56:00,
2013-02-28 15:02:00,72.0,14.6,30.34,NE,40,3.0,4.0,11,0.00,,,0.00,Wunderground v.1.15,2013-02-28 23:02:00,
2013-02-28 15:08:00,71.3,14.0,30.34,NNE,30,5.0,7.0,11,0.00,,,0.00,Wunderground v.1.15,2013-02-28 23:08:00,
2013-02-28 15:14:00,70.6,15.5,30.34,NE,40,3.0,4.0,12,0.00,,,0.00,Wunderground v.1.15,2013-02-28 23:14:00,
2013-02-28 15:20:00,70.3,15.2,30.33,NE,45,1.0,1.0,12,0.00,,,0.00,Wunderground v.1.15,2013-02-28 23:20:00,
2013-02-28 15:26:00,70.4,15.3,30.33,East,87,1.0,3.0,12,0.00,,,0.00,Wunderground v.1.15,2013-02-28 23:26:00,
2013-02-28 15:32:00,70.4,15.3,30.33,East,90,2.0,4.0,12,0.00,,,0.00,Wunderground v.1.15,2013-02-28 23:32:00,
2013-02-28 15:38:00,70.5,15.4,30.33,East,99,2.0,4.0,12,0.00,,,0.00,Wunderground v.1.15,2013-02-28 23:38:00,
2013-02-28 15:44:00,70.6,15.5,30.33,East,84,2.0,6.0,12,0.00,,,0.00,Wunderground v.1.15,2013-02-28 23:44:00,
2013-02-28 15:50:00,70.3,15.2,30.33,East,94,4.0,4.0,12,0.00,,,0.00,Wunderground v.1.15,2013-02-28 23:50:00,
2013-02-28 15:56:00,70.1,15.1,30.33,NE,52,2.0,4.0,12,0.00,,,0.00,Wunderground v.1.15,2013-02-28 23:56:00,
2013-02-28 16:02:00,70.2,15.1,30.33,NNE,29,2.0,3.0,12,0.00,,,0.00,Wunderground v.1.15,2013-03-01 00:02:00,
2013-02-28 16:08:00,70.1,15.1,30.33,NNE,29,1.0,3.0,12,0.00,,,0.00,Wunderground v.1.15,2013-03-01 00:08:00,
2013-02-28 16:14:00,70.3,15.2,30.33,NNE,30,2.0,5.0,12,0.00,,,0.00,Wunderground v.1.15,2013-03-01 00:14:00,
2013-02-28 16:20:00,70.2,15.1,30.33,NNE,26,4.0,5.0,12,0.00,,,0.00,Wunderground v.1.15,2013-03-01 00:20:00,
2013-02-28 16:26:00,69.8,14.8,30.33,NE,46,4.0,6.0,12,0.00,,,0.00,Wunderground v.1.15,2013-03-01 00:26:00,
2013-02-28 16:32:00,69.5,14.6,30.33,NE,42,3.0,3.0,12,0.00,,,0.00,Wunderground v.1.15,2013-03-01 00:32:00,
2013-02-28 16:38:00,69.2,14.4,30.33,NE,53,3.0,3.0,12,0.00,,,0.00,Wunderground v.1.15,2013-03-01 00:38:00,
2013-02-28 16:44:00,68.9,14.1,30.33,NE,34,3.0,7.0,12,0.00,,,0.00,Wunderground v.1.15,2013-03-01 00:44:00,
2013-02-28 16:50:00,68.6,13.9,30.33,NE,46,3.0,3.0,12,0.00,,,0.00,Wunderground v.1.15,2013-03-01 00:50:00,
2013-02-28 16:56:00,68.3,13.7,30.33,NE,46,3.0,4.0,12,0.00,,,0.00,Wunderground v.1.15,2013-03-01 00:56:00,
2013-02-28 17:02:00,68.2,13.6,30.33,ENE,63,3.0,4.0,12,0.00,,,0.00,Wunderground v.1.15,2013-03-01 01:02:00,
2013-02-28 17:08:00,67.9,13.3,30.33,NE,49,2.0,4.0,12,0.00,,,0.00,Wunderground v.1.15,2013-03-01 01:08:00,
2013-02-28 17:14:00,67.4,14.8,30.33,NE,48,3.0,4.0,13,0.00,,,0.00,Wunderground v.1.15,2013-03-01 01:14:00,
2013-02-28 17:20:00,67.0,14.5,30.33,NE,45,3.0,6.0,13,0.00,,,0.00,Wunderground v.1.15,2013-03-01 01:20:00,
2013-02-28 17:26:00,66.5,14.1,30.33,NE,44,3.0,6.0,13,0.00,,,0.00,Wunderground v.1.15,2013-03-01 01:26:00,
2013-02-28 17:32:00,66.1,13.8,30.34,NE,42,3.0,3.0,13,0.00,,,0.00,Wunderground v.1.15,2013-03-01 01:32:00,
2013-02-28 17:38:00,65.6,13.4,30.34,NE,37,3.0,4.0,13,0.00,,,0.00,Wunderground v.1.15,2013-03-01 01:38:00,
2013-02-28 17:44:00,65.1,13.0,30.34,NE,38,2.0,3.0,13,0.00,,,0.00,Wunderground v.1.15,2013-03-01 01:44:00,
2013-02-28 17:50:00,64.7,12.7,30.34,NE,38,1.0,1.0,13,0.00,,,0.00,Wunderground v.1.15,2013-03-01 01:50:00,
2013-02-28 17:56:00,64.3,14.0,30.34,NE,38,1.0,1.0,14,0.00,,,0.00,Wunderground v.1.15,2013-03-01 01:56:00,
2013-02-28 18:02:00,63.5,11.7,30.35,NE,38,0.0,0.0,13,0.00,,,0.00,Wunderground v.1.15,2013-03-01 02:02:00,
2013-02-28 18:08:00,62.5,12.6,30.35,NE,39,0.0,1.0,14,0.00,,,0.00,Wunderground v.1.15,2013-03-01 02:08:00,
2013-02-28 18:14:00,61.7,11.9,30.35,NE,44,0.0,1.0,14,0.00,,,0.00,Wunderground v.1.15,2013-03-01 02:14:00,
2013-02-28 18:20:00,61.2,13.1,30.35,ENE,57,1.0,2.0,15,0.00,,,0.00,Wunderground v.1.15,2013-03-01 02:20:00,
2013-02-28 18:26:00,60.6,12.6,30.35,ENE,57,1.0,2.0,15,0.00,,,0.00,Wunderground v.1.15,2013-03-01 02:26:00,
2013-02-28 18:32:00,59.9,12.1,30.35,ESE,107,2.0,3.0,15,0.00,,,0.00,Wunderground v.1.15,2013-03-01 02:32:00,
2013-02-28 18:38:00,59.1,11.4,30.35,SE,126,3.0,5.0,15,0.00,,,0.00,Wunderground v.1.15,2013-03-01 02:38:00,
2013-02-28 18:44:00,58.4,10.9,30.35,SE,126,4.0,5.0,15,0.00,,,0.00,Wunderground v.1.15,2013-03-01 02:44:00,
2013-02-28 18:50:00,57.8,11.8,30.35,SE,127,2.0,2.0,16,0.00,,,0.00,Wunderground v.1.15,2013-03-01 02:50:00,
2013-02-28 18:56:00,57.2,12.7,30.36,SE,126,2.0,2.0,17,0.00,,,0.00,Wunderground v.1.15,2013-03-01 02:56:00,
2013-02-28 19:02:00,56.5,10.8,30.36,SE,130,2.0,3.0,16,0.00,,,0.00,Wunderground v.1.15,2013-03-01 03:02:00,
2013-02-28 19:08:00,56.0,11.7,30.36,SE,144,3.0,4.0,17,0.00,,,0.00,Wunderground v.1.15,2013-03-01 03:08:00,
2013-02-28 19:14:00,55.5,11.3,30.36,SSW,205,4.0,5.0,17,0.00,,,0.00,Wunderground v.1.15,2013-03-01 03:14:00,
2013-02-28 19:20:00,55.3,11.2,30.36,SSW,206,5.0,5.0,17,0.00,,,0.00,Wunderground v.1.15,2013-03-01 03:20:00,
2013-02-28 19:26:00,55.3,11.2,30.36,SSW,206,5.0,5.0,17,0.00,,,0.00,Wunderground v.1.15,2013-03-01 03:26:00,
2013-02-28 19:32:00,55.1,11.0,30.36,SSW,206,4.0,4.0,17,0.00,,,0.00,Wunderground v.1.15,2013-03-01 03:32:00,
2013-02-28 19:38:00,54.9,10.8,30.36,SSW,206,3.0,4.0,17,0.00,,,0.00,Wunderground v.1.15,2013-03-01 03:38:00,
2013-02-28 19:44:00,54.6,10.6,30.37,SSW,209,3.0,4.0,17,0.00,,,0.00,Wunderground v.1.15,2013-03-01 03:44:00,
2013-02-28 19:50:00,54.1,10.2,30.37,SSW,210,4.0,4.0,17,0.00,,,0.00,Wunderground v.1.15,2013-03-01 03:50:00,
2013-02-28 19:56:00,53.7,9.8,30.37,SSW,211,4.0,6.0,17,0.00,,,0.00,Wunderground v.1.15,2013-03-01 03:56:00,
2013-02-28 20:02:00,53.2,10.7,30.37,SSW,211,4.0,5.0,18,0.00,,,0.00,Wunderground v.1.15,2013-03-01 04:02:00,
2013-02-28 20:08:00,53.0,10.6,30.37,SSW,210,3.0,5.0,18,0.00,,,0.00,Wunderground v.1.15,2013-03-01 04:08:00,
2013-02-28 20:14:00,52.9,10.5,30.37,SSW,210,3.0,4.0,18,0.00,,,0.00,Wunderground v.1.15,2013-03-01 04:14:00,
2013-02-28 20:20:00,53.0,10.6,30.37,SSW,210,4.0,4.0,18,0.00,,,0.00,Wunderground v.1.15,2013-03-01 04:20:00,
2013-02-28 20:26:00,53.0,10.6,30.37,SSW,211,4.0,4.0,18,0.00,,,0.00,Wunderground v.1.15,2013-03-01 04:26:00,
2013-02-28 20:32:00,53.1,10.6,30.38,SSW,210,3.0,3.0,18,0.00,,,0.00,Wunderground v.1.15,2013-03-01 04:32:00,
2013-02-28 20:38:00,53.2,10.7,30.38,SSW,211,3.0,4.0,18,0.00,,,0.00,Wunderground v.1.15,2013-03-01 04:38:00,
2013-02-28 20:44:00,53.1,10.6,30.38,SSW,210,3.0,3.0,18,0.00,,,0.00,Wunderground v.1.15,2013-03-01 04:44:00,
2013-02-28 20:50:00,52.8,10.4,30.38,SSW,210,3.0,3.0,18,0.00,,,0.00,Wunderground v.1.15,2013-03-01 04:50:00,
2013-02-28 20:56:00,52.6,10.2,30.38,SSW,211,4.0,5.0,18,0.00,,,0.00,Wunderground v.1.15,2013-03-01 04:56:00,
2013-02-28 21:00:00,52.3,10.0,30.38,SSW,210,4.0,4.0,18,0.00,,,0.00,Wunderground v.1.15,2013-03-01 05:00:00,
2013-02-28 21:04:00,52.2,9.9,30.39,SSW,211,3.0,4.0,18,0.00,,,0.00,Wunderground v.1.15,2013-03-01 05:04:00,
2013-02-28 21:06:00,52.1,9.8,30.39,SSW,211,2.0,4.0,18,0.00,,,0.00,Wunderground v.1.15,2013-03-01 05:06:00,
2013-02-28 21:10:00,51.9,9.6,30.39,SSW,210,1.0,1.0,18,0.00,,,0.00,Wunderground v.1.15,2013-03-01 05:10:00,
2013-02-28 21:12:00,51.7,9.5,30.39,SSW,211,1.0,1.0,18,0.00,,,0.00,Wunderground v.1.15,2013-03-01 05:12:00,
2013-02-28 21:18:00,51.4,9.2,30.39,SSW,211,0.0,2.0,18,0.00,,,0.00,Wunderground v.1.15,2013-03-01 05:18:00,
2013-02-28 21:24:00,51.1,10.2,30.39,SSW,211,1.0,3.0,19,0.00,,,0.00,Wunderground v.1.15,2013-03-01 05:24:00,
2013-02-28 21:30:00,50.9,10.0,30.39,SSW,210,1.0,1.0,19,0.00,,,0.00,Wunderground v.1.15,2013-03-01 05:30:00,
2013-02-28 21:36:00,50.7,9.9,30.39,SSW,211,0.0,1.0,19,0.00,,,0.00,Wunderground v.1.15,2013-03-01 05:36:00,
2013-02-28 21:42:00,50.5,10.9,30.40,SSW,211,0.0,0.0,20,0.00,,,0.00,Wunderground v.1.15,2013-03-01 05:42:00,
2013-02-28 21:48:00,50.2,10.6,30.40,SSW,210,0.0,0.0,20,0.00,,,0.00,Wunderground v.1.15,2013-03-01 05:48:00,
2013-02-28 21:54:00,49.9,10.4,30.40,SSW,211,0.0,0.0,20,0.00,,,0.00,Wunderground v.1.15,2013-03-01 05:54:00,
2013-02-28 22:00:00,49.6,10.1,30.40,SSW,211,0.0,0.0,20,0.00,,,0.00,Wunderground v.1.15,2013-03-01 06:00:00,
2013-02-28 22:06:00,49.4,9.9,30.40,SSW,211,0.0,0.0,20,0.00,,,0.00,Wunderground v.1.15,2013-03-01 06:06:00,
2013-02-28 22:12:00,49.2,9.8,30.40,SSW,211,0.0,0.0,20,0.00,,,0.00,Wunderground v.1.15,2013-03-01 06:12:00,
2013-02-28 22:18:00,49.0,9.6,30.40,SSW,210,0.0,0.0,20,0.00,,,0.00,Wunderground v.1.15,2013-03-01 06:18:00,
2013-02-28 22:24:00,48.8,10.5,30.40,SSW,210,0.0,0.0,21,0.00,,,0.00,Wunderground v.1.15,2013-03-01 06:24:00,
2013-02-28 22:30:00,48.5,9.2,30.40,SSW,211,0.0,0.0,20,0.00,,,0.00,Wunderground v.1.15,2013-03-01 06:30:00,
2013-02-28 22:36:00,48.1,8.8,30.40,SSW,211,0.0,0.0,20,0.00,,,0.00,Wunderground v.1.15,2013-03-01 06:36:00,
2013-02-28 22:42:00,47.9,10.8,30.40,SSW,211,0.0,0.0,22,0.00,,,0.00,Wunderground v.1.15,2013-03-01 06:42:00,
2013-02-28 22:48:00,47.5,9.4,30.40,SSW,211,0.0,0.0,21,0.00,,,0.00,Wunderground v.1.15,2013-03-01 06:48:00,
2013-02-28 22:54:00,47.2,9.2,30.40,SSW,211,0.0,0.0,21,0.00,,,0.00,Wunderground v.1.15,2013-03-01 06:54:00,
2013-02-28 23:00:00,47.2,9.2,30.40,SSW,211,0.0,0.0,21,0.00,,,0.00,Wunderground v.1.15,2013-03-01 07:00:00,
2013-02-28 23:06:00,47.4,9.4,30.40,SSW,211,0.0,0.0,21,0.00,,,0.00,Wunderground v.1.15,2013-03-01 07:06:00,
2013-02-28 23:12:00,47.7,9.6,30.40,SSW,210,0.0,0.0,21,0.00,,,0.00,Wunderground v.1.15,2013-03-01 07:12:00,
2013-02-28 23:18:00,48.1,9.9,30.40,SSW,211,0.0,1.0,21,0.00,,,0.00,Wunderground v.1.15,2013-03-01 07:18:00,
2013-02-28 23:24:00,48.7,10.4,30.40,SSW,211,0.0,1.0,21,0.00,,,0.00,Wunderground v.1.15,2013-03-01 07:24:00,
2013-02-28 23:30:00,49.0,10.7,30.40,West,275,1.0,1.0,21,0.00,,,0.00,Wunderground v.1.15,2013-03-01 07:30:00,
2013-02-28 23:36:00,49.0,10.7,30.40,West,275,2.0,4.0,21,0.00,,,0.00,Wunderground v.1.15,2013-03-01 07:36:00,
2013-02-28 23:42:00,48.9,10.6,30.40,West,275,4.0,4.0,21,0.00,,,0.00,Wunderground v.1.15,2013-03-01 07:42:00,
2013-02-28 23:48:00,48.8,10.5,30.40,West,275,4.0,6.0,21,0.00,,,0.00,Wunderground v.1.15,2013-03-01 07:48:00,
2013-02-28 23:54:00,48.5,10.3,30.40,West,275,5.0,6.0,21,0.00,,,0.00,Wunderground v.1.15,2013-03-01 07:54:00,